KK7RJD Weather Reports


time (UTC)temp
C
wind
direction
speed
KPH
gust
KPH
rain 1hr
cm
rain 24hr
cm
rain mn
cm
humidity
%
barometer
mb
20260502170208 16 23 6.4 6.4 0.00 0.00 0.00 29 1018.9
20260502164155 16 38 3.2 3.2 0.00 0.00 0.00 29 1019.1
20260502163650 15 19 6.4 6.4 0.00 0.00 0.00 29 1019.0
20260502163147 15 95 4.8 6.4 0.00 0.00 0.00 31 1019.0
20260502162644 15 60 3.2 4.8 0.00 0.00 0.00 29 1019.0
20260502162141 14 72 4.8 6.4 0.00 0.00 0.00 31 1019.0
20260502161638 14 40 8.0 11.3 0.00 0.00 0.00 32 1019.0
20260502161135 15 85 6.4 6.4 0.00 0.00 0.00 33 1019.0
20260502160633 14 68 3.2 3.2 0.00 0.00 0.00 33 1019.0
20260502160131 14 89 6.4 6.4 0.00 0.00 0.00 33 1019.1
20260502152045 13 151 0.0 1.6 0.00 0.00 0.00 35 1019.3
20260502151542 13 38 1.6 3.2 0.00 0.00 0.00 34 1019.3
20260502151040 12 142 0.0 0.0 0.00 0.00 0.00 34 1019.2
20260502150537 12 105 4.8 4.8 0.00 0.00 0.00 36 1019.1
20260502130422 3 271 3.2 3.2 0.00 0.00 0.00 62 1019.1
20260502123405 0 203 0.0 0.0 0.00 0.00 0.00 66 1018.9
20260502122902 0 204 0.0 0.0 0.00 0.00 0.00 68 1019.0
20260502122358 0 211 0.0 0.0 0.00 0.00 0.00 68 1019.0
20260502121856 0 225 0.0 1.6 0.00 0.00 0.00 67 1018.9
20260502121353 0 245 0.0 1.6 0.00 0.00 0.00 69 1018.9
20260502120851 0 203 0.0 0.0 0.00 0.00 0.00 68 1018.6
20260502120346 0 195 1.6 1.6 0.00 0.00 0.00 67 1018.7
20260502115844 1 286 0.0 1.6 0.00 0.00 0.00 66 1018.7
20260502115341 1 299 1.6 1.6 0.00 0.00 0.00 66 1018.7
20260502114837 1 249 0.0 0.0 0.00 0.00 0.00 65 1018.7
20260502114334 1 323 0.0 0.0 0.00 0.00 0.00 66 1018.7
20260502113831 1 255 1.6 1.6 0.00 0.00 0.00 67 1018.6
20260502113329 0 262 0.0 0.0 0.00 0.00 0.00 69 1018.9
20260502112827 0 160 0.0 0.0 0.00 0.00 0.00 67 1019.0
20260502112324 1 150 0.0 0.0 0.00 0.00 0.00 67 1019.0
20260502111822 1 228 0.0 0.0 0.00 0.00 0.00 66 1019.0
20260502111319 1 289 0.0 1.6 0.00 0.00 0.00 65 1018.6
20260502110816 1 221 0.0 0.0 0.00 0.00 0.00 64 1018.7
20260502110314 1 218 0.0 0.0 0.00 0.00 0.00 65 1018.9
20260502105812 1 236 3.2 3.2 0.00 0.00 0.00 65 1018.7
20260502105308 1 320 1.6 1.6 0.00 0.00 0.00 63 1018.5
20260502104806 1 247 0.0 0.0 0.00 0.00 0.00 65 1018.6
20260502104303 2 218 3.2 3.2 0.00 0.00 0.00 64 1018.5
20260502103800 2 248 1.6 3.2 0.00 0.00 0.00 64 1018.9
20260502103257 2 208 0.0 0.0 0.00 0.00 0.00 63 1018.7
20260502102755 3 239 0.0 1.6 0.00 0.00 0.00 59 1018.7
20260502102251 3 202 0.0 0.0 0.00 0.00 0.00 57 1018.5
20260502101749 3 262 1.6 1.6 0.00 0.00 0.00 56 1018.7
20260502101247 3 275 1.6 1.6 0.00 0.00 0.00 57 1018.6
20260502100745 3 345 1.6 3.2 0.00 0.00 0.00 60 1018.5
20260502100243 3 347 3.2 3.2 0.00 0.00 0.00 57 1018.6
20260502091217 5 298 3.2 3.2 0.00 0.00 0.00 48 1018.4
20260502090715 5 334 3.2 4.8 0.00 0.00 0.00 49 1018.5
20260502090211 5 280 1.6 3.2 0.00 0.00 0.00 50 1018.5
20260502071113 5 336 3.2 3.2 0.00 0.00 0.00 55 1018.9
20260502070611 5 331 3.2 3.2 0.00 0.00 0.00 56 1018.7
20260502070109 6 357 3.2 3.2 0.00 0.00 0.00 55 1018.7
20260502065607 6 8 3.2 3.2 0.00 0.00 0.00 50 1018.7
20260502065104 6 12 3.2 4.8 0.00 0.00 0.00 47 1018.7
20260502064602 6 59 0.0 1.6 0.00 0.00 0.00 49 1018.6
20260502064059 7 46 0.0 1.6 0.00 0.00 0.00 46 1018.9
20260502063557 7 329 1.6 3.2 0.00 0.00 0.00 46 1018.7
20260502063055 6 311 3.2 3.2 0.00 0.00 0.00 48 1018.9
20260502062551 6 282 1.6 1.6 0.00 0.00 0.00 47 1018.7
20260502062049 5 286 1.6 1.6 0.00 0.00 0.00 49 1018.7
20260502061547 5 190 0.0 0.0 0.00 0.00 0.00 50 1018.7
20260502061044 6 175 0.0 0.0 0.00 0.00 0.00 48 1018.5
20260502060539 6 175 0.0 0.0 0.00 0.00 0.00 46 1018.7
20260502060036 6 192 0.0 0.0 0.00 0.00 0.00 45 1018.6
20260502055534 6 163 0.0 0.0 0.00 0.00 0.00 46 1018.6
20260502055032 6 150 0.0 0.0 0.00 0.00 0.00 48 1018.7
20260502054531 6 159 0.0 0.0 0.00 0.00 0.00 46 1018.6
20260502054027 6 203 0.0 0.0 0.00 0.00 0.00 45 1018.7
20260502053524 6 190 0.0 0.0 0.00 0.00 0.00 46 1018.7
20260502053022 6 213 0.0 0.0 0.00 0.00 0.00 47 1018.7
20260502052520 6 172 0.0 0.0 0.00 0.00 0.00 46 1018.9
20260502052018 7 194 0.0 0.0 0.00 0.00 0.00 44 1018.7
20260502051516 7 189 0.0 0.0 0.00 0.00 0.00 43 1018.7
20260502051013 8 201 0.0 0.0 0.00 0.00 0.00 42 1018.9
20260502050509 8 230 0.0 1.6 0.00 0.00 0.00 41 1018.7
20260502050007 8 196 0.0 0.0 0.00 0.00 0.00 41 1018.7
20260502045503 8 237 0.0 1.6 0.00 0.00 0.00 40 1018.6
20260502045000 8 202 0.0 0.0 0.00 0.00 0.00 40 1018.7
20260502044456 8 325 1.6 1.6 0.00 0.00 0.00 40 1018.7
20260502043953 8 230 0.0 1.6 0.00 0.00 0.00 41 1018.9
20260502043451 8 205 0.0 0.0 0.00 0.00 0.00 42 1018.7
20260502042950 8 205 0.0 1.6 0.00 0.00 0.00 40 1018.9
20260502042447 8 215 1.6 1.6 0.00 0.00 0.00 40 1018.9
20260502041945 10 216 0.0 0.0 0.00 0.00 0.00 35 1018.6
20260502041442 9 305 3.2 3.2 0.00 0.00 0.00 35 1018.6
20260502040939 9 256 1.6 1.6 0.00 0.00 0.00 34 1018.9
20260502040436 10 188 0.0 0.0 0.00 0.00 0.00 36 1018.7
20260502035932 10 194 0.0 0.0 0.00 0.00 0.00 36 1018.5
20260502035428 10 184 0.0 0.0 0.00 0.00 0.00 36 1018.6
20260502034926 10 208 1.6 1.6 0.00 0.00 0.00 36 1018.6
20260502034425 10 203 0.0 0.0 0.00 0.00 0.00 33 1018.5
20260502033923 10 202 0.0 0.0 0.00 0.00 0.00 33 1018.6
20260502033420 11 202 0.0 0.0 0.00 0.00 0.00 32 1018.5
20260502032916 11 202 0.0 0.0 0.00 0.00 0.00 32 1018.5
20260502032413 11 202 0.0 0.0 0.00 0.00 0.00 30 1018.4
20260502031910 11 198 0.0 0.0 0.00 0.00 0.00 30 1018.4
20260502031409 11 198 0.0 0.0 0.00 0.00 0.00 31 1018.4
20260502030907 12 200 0.0 0.0 0.00 0.00 0.00 30 1018.4
20260502030404 13 180 0.0 0.0 0.00 0.00 0.00 29 1018.2
20260502025902 13 104 0.0 0.0 0.00 0.00 0.00 25 1018.3
20260502025359 13 73 0.0 0.0 0.00 0.00 0.00 25 1018.2
20260502024857 13 61 0.0 0.0 0.00 0.00 0.00 27 1018.3
20260502024354 13 63 0.0 0.0 0.00 0.00 0.00 25 1018.1
20260502023852 13 78 1.6 1.6 0.00 0.00 0.00 29 1018.1
20260502023349 15 146 0.0 0.0 0.00 0.00 0.00 24 1017.9
20260502022847 15 146 0.0 0.0 0.00 0.00 0.00 23 1017.8
20260502022343 15 149 0.0 0.0 0.00 0.00 0.00 23 1017.7
20260502021840 16 142 0.0 0.0 0.00 0.00 0.00 22 1017.9
20260502021337 16 143 0.0 1.6 0.00 0.00 0.00 22 1017.6
20260502020835 16 137 1.6 1.6 0.00 0.00 0.00 21 1017.6
20260502020332 17 100 1.6 1.6 0.00 0.00 0.00 20 1017.8
20260502015829 17 138 0.0 0.0 0.00 0.00 0.00 21 1017.7
20260502015326 17 120 1.6 1.6 0.00 0.00 0.00 20 1017.7
20260502014823 17 126 0.0 1.6 0.00 0.00 0.00 20 1017.9
20260502014320 18 84 1.6 1.6 0.00 0.00 0.00 19 1017.7
20260502013816 18 31 3.2 3.2 0.00 0.00 0.00 19 1017.5
20260502013313 18 75 3.2 3.2 0.00 0.00 0.00 19 1017.6
20260502012809 18 58 3.2 3.2 0.00 0.00 0.00 19 1017.6
20260502012307 18 74 3.2 3.2 0.00 0.00 0.00 18 1017.7
20260502011804 18 39 3.2 3.2 0.00 0.00 0.00 19 1017.7
20260502011300 18 112 3.2 4.8 0.00 0.00 0.00 19 1017.7
20260502010757 18 46 3.2 3.2 0.00 0.00 0.00 19 1017.8
20260502010253 19 111 1.6 3.2 0.00 0.00 0.00 19 1017.6
20260502005751 19 124 1.6 3.2 0.00 0.00 0.00 19 1017.7
20260502005248 19 32 8.0 9.7 0.00 0.00 0.00 19 1017.6
20260502004745 19 336 3.2 3.2 0.00 0.00 0.00 20 1017.6
20260502004241 19 49 3.2 3.2 0.00 0.00 0.00 19 1017.7
20260502003739 20 93 4.8 6.4 0.00 0.00 0.00 18 1017.7
20260502003237 20 17 1.6 1.6 0.00 0.00 0.00 19 1017.7
20260502002732 20 292 3.2 3.2 0.00 0.00 0.00 19 1017.8
20260502002230 20 110 3.2 4.8 0.00 0.00 0.00 18 1017.9
20260502001727 20 186 0.0 0.0 0.00 0.00 0.00 19 1017.8
20260502001225 20 176 3.2 3.2 0.00 0.00 0.00 18 1017.8
20260502000722 20 331 3.2 3.2 0.00 0.00 0.00 20 1017.9
20260502000220 20 105 4.8 4.8 0.00 0.00 0.00 19 1017.9
20260501235715 20 18 1.6 3.2 0.00 0.00 0.00 19 1018.1
20260501235212 20 349 6.4 9.7 0.00 0.00 0.00 18 1017.9
20260501234708 20 29 4.8 4.8 0.00 0.00 0.00 19 1018.1
20260501234205 20 29 3.2 3.2 0.00 0.00 0.00 19 1018.1
20260501233703 20 39 9.7 12.9 0.00 0.00 0.00 20 1017.7
20260501233200 20 26 9.7 9.7 0.00 0.00 0.00 18 1017.9
20260501232655 20 17 6.4 6.4 0.00 0.00 0.00 19 1017.9
20260501232153 20 5 9.7 11.3 0.00 0.00 0.00 19 1018.2
20260501231651 20 2 8.0 9.7 0.00 0.00 0.00 22 1017.9
20260501231149 20 12 12.9 14.5 0.00 0.00 0.00 19 1018.1
20260501230647 20 330 12.9 14.5 0.00 0.00 0.00 22 1017.9
20260501230145 20 55 3.2 4.8 0.00 0.00 0.00 20 1017.9
20260501225642 20 18 8.0 11.3 0.00 0.00 0.00 18 1018.1
20260501225138 20 60 9.7 11.3 0.00 0.00 0.00 18 1017.9
20260501224635 20 347 4.8 4.8 0.00 0.00 0.00 20 1017.9
20260501224132 20 244 6.4 6.4 0.00 0.00 0.00 19 1018.1
20260501223629 20 198 3.2 3.2 0.00 0.00 0.00 19 1018.2
20260501223125 21 175 3.2 3.2 0.00 0.00 0.00 19 1018.3
20260501222621 20 295 4.8 4.8 0.00 0.00 0.00 19 1018.3
20260501222119 20 300 4.8 6.4 0.00 0.00 0.00 20 1018.4
20260501221615 19 352 8.0 11.3 0.00 0.00 0.00 21 1018.4
20260501221113 19 138 1.6 3.2 0.00 0.00 0.00 21 1018.6
20260501220611 20 57 8.0 11.3 0.00 0.00 0.00 21 1018.6
20260501220107 20 44 6.4 6.4 0.00 0.00 0.00 21 1018.5
20260501215604 20 64 4.8 6.4 0.00 0.00 0.00 22 1018.6
20260501215059 20 215 3.2 4.8 0.00 0.00 0.00 20 1018.6
20260501214554 20 160 1.6 1.6 0.00 0.00 0.00 21 1018.9
20260501214050 20 220 4.8 4.8 0.00 0.00 0.00 21 1019.0
20260501213547 20 161 0.0 0.0 0.00 0.00 0.00 20 1018.7
20260501213043 20 219 9.7 11.3 0.00 0.00 0.00 21 1019.0
20260501212540 20 311 8.0 9.7 0.00 0.00 0.00 20 1019.0
20260501212037 19 218 8.0 9.7 0.00 0.00 0.00 22 1019.0
20260501211533 19 217 1.6 1.6 0.00 0.00 0.00 21 1019.1
20260501211032 20 175 1.6 3.2 0.00 0.00 0.00 23 1019.1
20260501210527 19 146 1.6 1.6 0.00 0.00 0.00 22 1019.2
20260501210024 20 357 3.2 3.2 0.00 0.00 0.00 21 1019.2
20260501205521 20 5 3.2 4.8 0.00 0.00 0.00 23 1019.2
20260501205019 19 71 1.6 3.2 0.00 0.00 0.00 22 1019.2
20260501204515 18 173 0.0 0.0 0.00 0.00 0.00 22 1019.4
20260501204011 18 87 6.4 9.7 0.00 0.00 0.00 22 1019.4
20260501203508 18 24 9.7 12.9 0.00 0.00 0.00 22 1019.4
20260501203006 18 12 6.4 9.7 0.00 0.00 0.00 24 1019.4
20260501202502 18 16 4.8 4.8 0.00 0.00 0.00 23 1019.7
20260501201958 18 352 12.9 14.5 0.00 0.00 0.00 28 1019.4
20260501201456 18 52 3.2 3.2 0.00 0.00 0.00 25 1019.7
20260501200953 18 101 3.2 3.2 0.00 0.00 0.00 24 1019.7
20260501200450 18 65 3.2 4.8 0.00 0.00 0.00 27 1019.7
20260501195947 17 40 3.2 4.8 0.00 0.00 0.00 24 1019.7
20260501195444 18 338 6.4 9.7 0.00 0.00 0.00 23 1019.8
20260501194939 18 8 8.0 9.7 0.00 0.00 0.00 24 1019.7
20260501194435 17 19 4.8 4.8 0.00 0.00 0.00 25 1019.8
20260501193931 17 56 9.7 11.3 0.00 0.00 0.00 24 1019.7
20260501193430 17 30 11.3 14.5 0.00 0.00 0.00 24 1019.9
20260501192927 18 117 4.8 9.7 0.00 0.00 0.00 24 1019.9
20260501192424 17 353 4.8 6.4 0.00 0.00 0.00 28 1019.9
20260501191922 17 330 9.7 11.3 0.00 0.00 0.00 25 1020.0
20260501191419 17 205 0.0 0.0 0.00 0.00 0.00 27 1020.1
20260501190915 17 323 4.8 4.8 0.00 0.00 0.00 25 1020.1
20260501190411 17 81 6.4 6.4 0.00 0.00 0.00 24 1020.0
20260501185911 16 149 4.8 6.4 0.00 0.00 0.00 25 1020.0
20260501185408 17 67 1.6 3.2 0.00 0.00 0.00 25 1020.1
20260501184904 16 359 6.4 6.4 0.00 0.00 0.00 26 1020.2
20260501184400 16 44 9.7 12.9 0.00 0.00 0.00 25 1020.2
20260501183855 17 63 6.4 6.4 0.00 0.00 0.00 24 1020.2
20260501183353 17 48 3.2 3.2 0.00 0.00 0.00 25 1020.3
20260501182849 17 11 6.4 6.4 0.00 0.00 0.00 24 1020.6
20260501182346 16 28 8.0 9.7 0.00 0.00 0.00 27 1020.5
20260501181843 16 13 8.0 9.7 0.00 0.00 0.00 26 1020.6
20260501181340 16 36 8.0 9.7 0.00 0.00 0.00 26 1020.6
20260501180837 16 109 3.2 3.2 0.00 0.00 0.00 26 1020.7
20260501180333 16 132 8.0 12.9 0.00 0.00 0.00 25 1020.6
20260501175831 16 224 0.0 1.6 0.00 0.00 0.00 25 1020.7
20260501175327 16 238 3.2 4.8 0.00 0.00 0.00 28 1020.8